Theta_e
314 314 313 312 313 313 313 313 313 313 312 312 313 313 314 315 315 315 315 314 312 309 308 307 304 303 304 304 304 304 302 301 304 307 307 304 302 302 302 303 303 304 305 306 306 306 307 307 307 308 308 308 309 309 310 310 310 311 311 311 311 311 311 312 312 312 312 313 314 316 318 319 320 322
314 314 314 313 314 315 315 315 315 314 313 312 312 313 313 313 314 315 314 313 313 310 307 306 304 303 303 303 303 304 301 298 301 305 305 302 299 298 299 299 299 300 301 302 303 304 305 305 306 306 306 307 307 308 308 308 308 309 309 309 310 310 310 310 310 311 312 313 313 314 317 319 319 319
314 315 315 314 315 315 315 315 315 315 314 313 313 313 313 314 314 314 314 313 312 312 308 305 303 303 303 303 303 304 301 297 300 304 304 301 298 300 300 298 297 297 297 298 299 300 301 301 302 303 304 304 305 306 306 307 308 308 308 308 309 309 309 309 310 310 311 312 314 315 317 319 319 319
314 315 315 314 314 314 314 314 315 315 314 314 313 313 313 314 314 314 315 314 312 311 308 305 303 303 303 303 303 304 302 300 301 303 303 301 301 303 304 301 298 297 297 297 297 297 298 298 298 299 300 300 301 302 303 304 305 306 306 307 308 308 309 309 309 310 310 311 312 313 315 317 319 319
313 313 313 313 313 314 313 314 313 313 314 314 313 313 313 313 313 313 314 314 312 309 307 305 304 303 304 304 303 303 304 304 303 303 303 303 303 303 304 304 301 297 296 297 296 297 297 297 297 297 297 298 298 298 299 299 300 301 302 304 305 306 307 308 308 309 310 310 311 311 313 315 318 319
313 313 312 312 313 313 313 313 313 312 312 313 313 313 312 311 311 312 313 314 313 310 307 306 305 304 304 305 304 304 304 304 304 304 304 304 303 303 303 304 303 299 296 296 296 296 296 296 296 297 297 297 297 297 297 297 298 298 299 299 300 301 303 304 306 307 308 309 310 310 311 312 315 318
312 313 312 312 312 313 313 312 312 311 312 312 313 312 311 311 310 311 312 312 313 311 309 307 306 306 306 305 305 304 304 305 305 305 305 304 304 304 304 304 303 300 298 297 297 297 297 297 296 296 297 297 297 297 297 297 297 297 297 297 298 298 299 300 302 303 305 307 308 309 310 311 312 314
311 312 313 313 312 313 313 312 312 312 312 312 313 312 311 311 310 310 311 311 312 312 310 308 307 307 307 306 305 304 305 305 306 305 306 305 305 305 305 304 303 301 299 299 299 298 298 298 297 297 296 296 297 296 296 297 297 297 297 297 297 297 298 298 298 299 300 302 304 306 308 309 310 311
312 313 314 313 313 313 314 313 312 312 312 312 313 312 311 311 311 311 310 311 311 312 311 310 308 307 307 307 306 306 306 307 307 307 307 306 306 306 306 305 304 302 301 300 300 299 299 298 297 297 297 296 296 296 296 297 296 296 296 296 297 297 297 297 298 298 298 299 300 302 304 306 308 309
314 314 315 315 314 314 314 314 314 313 313 312 312 312 312 311 311 311 311 311 311 311 311 310 309 308 308 309 308 306 306 307 308 307 307 307 307 307 306 306 305 303 302 302 301 300 299 299 298 297 297 297 297 296 296 296 296 296 296 296 297 297 297 297 297 297 298 298 298 299 300 303 305 307
316 315 315 315 315 314 313 313 314 313 313 313 312 312 312 311 311 311 311 311 312 312 311 311 311 310 309 309 309 307 306 307 308 307 307 307 307 307 306 305 305 304 303 302 301 300 300 300 299 299 298 298 298 297 296 296 296 296 296 296 297 297 297 298 298 298 298 298 298 298 299 300 301 303
317 317 316 316 315 314 314 314 314 314 314 313 313 312 311 310 311 311 311 312 312 312 312 311 311 311 311 310 309 309 308 308 308 307 307 307 307 306 305 304 304 304 303 302 302 301 301 301 301 300 300 300 300 298 297 297 298 298 297 297 297 297 298 298 298 298 298 298 298 298 298 299 299 301
320 320 319 318 317 316 315 314 314 314 314 313 312 312 311 310 310 311 312 312 312 312 312 311 311 311 311 311 310 309 309 308 307 307 306 306 306 305 304 304 303 304 303 302 302 301 301 302 302 302 301 301 301 300 300 301 301 299 297 296 296 297 298 298 298 298 298 299 299 299 299 299 299 299
322 321 321 320 318 316 315 314 314 314 312 311 311 311 311 310 310 311 312 312 312 312 312 311 311 311 311 310 310 309 308 307 307 306 306 305 305 304 304 303 303 303 303 302 302 301 301 301 302 302 301 301 301 301 302 302 300 298 295 295 295 296 297 297 297 298 298 299 300 301 300 300 300 299
322 321 321 321 319 317 316 315 314 314 313 310 308 309 309 308 308 310 311 311 311 311 312 311 310 310 310 310 309 308 307 306 306 305 305 304 304 304 303 303 302 303 302 301 301 300 300 301 301 301 301 301 302 301 301 300 298 295 294 294 294 295 296 297 297 297 297 298 300 301 302 302 302 302
320 319 320 321 321 318 317 316 315 314 313 310 307 307 308 306 305 307 308 309 310 310 310 310 309 309 309 308 308 308 306 305 304 304 304 303 303 302 302 302 302 302 301 300 300 300 300 301 301 301 301 301 301 301 300 299 297 296 295 294 294 294 295 296 296 297 297 297 299 300 301 302 302 302
320 320 321 321 321 319 316 315 315 314 313 311 308 307 307 304 303 303 304 305 306 307 308 308 307 307 307 307 307 306 304 302 303 303 302 302 302 301 301 301 301 300 300 300 300 300 300 300 300 301 301 301 301 301 300 299 298 297 296 294 293 294 295 296 296 296 296 297 298 300 301 302 302 302
320 320 320 320 319 318 316 315 315 313 312 311 309 307 304 302 302 303 302 303 303 304 305 305 306 306 306 305 305 304 301 301 302 301 301 300 300 299 299 300 300 300 300 300 301 301 300 300 300 300 300 300 301 301 300 299 298 297 296 295 294 294 295 296 296 296 296 296 297 298 299 301 302 302
319 319 319 318 318 317 315 314 314 311 310 309 307 305 305 304 304 303 302 303 303 303 304 304 305 305 304 303 302 301 300 300 300 300 299 299 299 299 299 300 300 300 300 300 300 300 300 300 299 300 300 300 300 300 299 299 298 297 297 296 295 294 295 295 295 295 295 296 296 296 297 300 301 301
317 317 317 317 317 315 313 313 311 309 308 307 307 306 307 306 304 302 302 302 302 301 302 302 302 301 300 299 298 297 296 296 297 297 297 298 298 299 300 300 299 299 300 299 300 300 300 299 299 300 300 299 299 299 299 299 298 298 297 296 295 295 295 295 295 295 295 295 295 295 295 298 300 301
314 314 314 314 313 311 310 310 309 307 307 308 307 307 307 306 304 302 301 301 300 300 300 299 298 297 297 296 295 294 294 294 294 294 296 297 298 298 299 299 299 299 299 299 299 299 299 299 299 299 299 298 298 298 298 299 299 298 297 297 296 295 295 295 295 295 295 294 294 294 294 296 299 300
310 310 311 311 310 309 308 308 306 305 307 308 308 307 307 306 305 303 301 300 300 299 299 298 297 296 295 295 294 294 294 293 293 293 295 296 297 297 298 299 299 299 299 298 298 298 298 298 298 298 298 298 298 298 298 298 298 298 297 297 297 296 296 295 295 294 294 294 294 293 293 294 297 299
307 307 307 307 307 307 306 305 303 303 306 308 307 307 306 306 306 304 302 302 301 301 300 299 299 298 297 296 296 296 296 295 294 293 295 296 297 297 298 298 298 298 298 298 298 297 297 297 297 297 297 298 298 298 298 298 298 298 297 297 297 296 296 295 295 295 295 295 295 294 294 294 295 297
306 305 304 304 304 304 304 303 301 302 305 307 307 306 306 306 305 304 302 301 299 299 300 300 299 299 298 298 298 298 297 296 296 295 295 296 296 296 296 297 297 297 298 297 296 296 296 296 296 296 296 297 297 297 297 297 297 297 297 297 297 297 296 295 295 296 296 296 296 295 295 295 294 296
306 304 302 301 302 302 302 302 301 301 302 304 305 305 305 304 302 301 301 299 297 297 299 299 298 298 298 298 298 298 297 297 296 296 296 296 295 295 296 296 296 296 297 296 295 295 295 295 295 295 295 296 296 296 296 296 296 296 296 296 296 296 296 295 295 296 296 296 296 296 296 296 295 295
306 304 301 301 301 301 301 301 301 301 301 302 302 301 300 299 297 297 298 298 297 298 298 298 297 297 297 298 297 297 297 297 296 296 295 295 295 295 295 295 295 295 295 295 294 294 294 294 294 294 294 295 295 295 295 295 296 296 296 296 296 296 295 295 295 295 295 296 296 297 297 297 296 296
305 303 302 301 300 300 300 300 300 300 300 300 299 297 296 295 294 295 297 297 297 297 297 297 297 297 297 297 297 297 296 296 295 295 294 294 294 293 293 293 294 294 294 294 293 293 293 293 293 293 294 294 294 294 294 295 295 295 295 295 295 295 295 294 294 294 294 295 295 296 296 296 296 296
304 302 302 301 299 299 299 299 299 298 298 296 296 295 294 293 294 295 297 297 297 297 297 297 297 297 297 296 296 296 295 295 294 293 293 292 292 292 292 292 292 292 292 292 292 292 292 292 293 293 293 293 293 294 294 294 294 294 294 294 294 294 294 294 294 294 294 294 294 295 296 297 297 297
304 303 302 300 298 298 297 297 296 296 295 294 293 293 292 294 295 296 297 297 297 297 297 297 296 296 296 296 295 295 294 293 292 292 293 292 292 292 292 292 292 292 292 292 292 292 292 292 292 292 292 292 293 293 293 293 293 293 293 293 293 293 293 293 293 293 293 294 294 295 295 296 296 297
303 301 300 298 297 296 296 296 295 294 293 293 293 293 293 295 296 296 296 296 296 296 296 296 295 295 295 295 294 294 293 293 293 293 293 292 292 292 292 292 292 292 292 293 293 292 292 292 292 292 292 292 292 293 293 293 293 293 293 293 293 293 293 293 293 293 293 293 294 294 295 295 296 296
300 299 297 297 296 295 295 295 294 293 293 294 294 294 295 296 295 295 294 294 295 295 295 295 295 295 294 294 294 294 293 293 293 293 292 292 292 292 292 292 292 292 293 293 293 293 292 292 292 292 292 292 292 292 292 292 293 293 293 293 293 293 292 292 292 293 293 293 293 294 294 295 295 296
297 297 296 295 295 294 294 295 295 295 295 295 295 295 296 295 295 294 293 293 294 294 294 294 294 294 294 294 294 293 293 293 293 292 292 292 292 292 292 292 292 292 293 293 293 293 292 292 292 292 292 292 292 292 292 292 292 292 293 293 293 293 292 292 292 292 292 292 293 294 294 294 295 295
296 296 295 295 296 296 296 296 297 297 296 295 295 295 295 295 295 294 293 294 293 293 292 292 293 293 293 293 293 292 292 292 292 292 292 292 292 292 292 292 292 292 292 293 293 293 292 292 292 292 292 292 292 292 292 292 292 292 293 293 293 292 292 292 292 292 292 293 293 293 294 294 295 295
296 296 297 297 297 296 296 296 296 296 295 295 295 294 293 293 293 293 292 293 292 291 291 292 292 293 293 293 292 292 292 292 292 292 291 291 292 292 292 292 292 292 292 292 293 292 292 292 292 292 292 292 292 292 292 292 292 292 292 292 292 292 292 292 292 292 293 293 293 294 294 294 294 294
297 297 297 297 296 296 296 296 296 295 295 295 295 294 294 293 293 292 292 292 290 290 291 292 292 293 293 292 292 292 291 291 291 291 291 291 292 292 292 292 292 292 292 292 292 292 292 292 292 292 292 292 292 292 292 292 292 292 292 292 292 292 292 292 292 292 293 293 293 294 294 294 294 294
297 297 297 297 296 296 296 295 295 295 295 294 294 294 294 294 293 292 292 290 290 291 292 292 292 292 292 292 292 291 291 291 291 291 291 291 291 291 291 292 292 292 292 292 292 292 292 292 292 292 292 292 292 292 293 293 292 292 292 292 291 291 291 292 292 292 292 293 293 293 293 293 294 294
297 297 297 297 296 296 296 295 295 295 294 294 294 294 294 293 293 292 291 290 290 291 292 292 292 292 292 292 292 291 291 291 291 291 291 291 291 291 291 291 291 292 292 292 292 292 292 292 292 292 292 292 291 292 293 293 292 291 291 291 291 291 291 291 292 292 292 292 293 293 293 293 293 293
297 297 297 297 296 296 295 295 294 294 294 294 294 294 294 293 293 292 290 290 291 291 292 292 292 292 292 292 291 291 291 291 290 290 290 290 290 291 291 291 291 291 291 292 292 292 292 292 291 291 291 291 291 291 292 292 292 292 291 291 291 291 291 291 291 291 291 292 292 292 292 292 292 292
297 297 297 297 296 296 295 294 294 294 294 294 294 294 293 293 292 291 290 290 290 291 292 292 292 292 292 291 291 291 291 290 290 290 290 290 290 290 290 291 291 291 291 291 291 291 292 292 292 292 292 292 291 291 291 291 291 291 291 290 290 290 290 290 290 291 291 292 292 292 292 291 291 291
297 297 296 296 296 296 295 294 294 294 294 294 294 293 293 292 291 290 289 290 290 291 292 292 292 292 291 291 291 291 291 290 290 290 290 290 290 290 290 290 290 290 290 291 291 291 292 292 292 292 292 291 291 291 290 290 290 291 291 291 291 290 290 290 290 291 291 292 292 292 292 292 291 291
296 296 296 296 296 295 295 294 294 294 294 294 293 292 292 291 290 289 288 289 290 291 291 292 292 292 291 291 291 291 291 290 290 290 290 290 290 290 290 290 290 290 290 291 291 291 291 292 292 291 291 291 290 290 290 291 292 292 292 292 291 291 290 290 290 290 290 291 291 291 292 292 292 292
296 296 295 295 295 295 295 294 294 294 293 293 293 292 291 290 289 288 289 290 291 291 292 292 292 292 291 291 291 291 291 290 290 290 290 290 290 290 290 290 290 290 290 290 291 291 291 291 291 291 290 290 290 290 291 292 293 293 292 292 292 291 290 290 290 290 290 290 290 291 291 291 292 292
295 295 295 295 294 295 294 294 294 293 293 293 292 291 290 290 289 289 290 291 292 292 292 292 292 291 291 291 291 291 291 290 290 290 290 290 290 290 290 290 290 290 290 290 290 290 290 291 291 291 291 290 290 291 292 292 292 292 292 292 292 291 290 290 289 289 290 290 290 290 290 290 291 292
295 294 294 294 294 294 294 293 293 293 292 292 291 290 290 289 289 289 291 292 292 292 291 291 291 291 291 291 291 291 290 290 289 289 289 290 290 290 290 290 290 290 290 290 290 290 291 291 291 291 291 291 291 291 292 292 293 292 292 292 291 291 290 290 289 289 289 289 290 290 290 290 290 291
294 294 294 294 293 293 293 293 293 292 291 291 290 290 289 289 289 290 291 292 291 291 291 291 291 291 291 290 290 290 290 289 289 289 290 290 290 290 290 290 290 290 290 290 290 291 291 291 291 291 291 291 291 292 292 293 292 292 292 292 291 291 290 289 289 288 288 288 289 290 290 290 290 290
Wind_Speed
7 7 7 8 8 8 7 7 7 6 5 6 6 5 5 4 4 4 4 4 5 4 3 4 6 5 5 5 5 5 4 3 5 5 3 4 6 6 6 7 7 7 8 8 8 7 7 7 7 7 7 7 7 7 7 8 8 9 10 11 11 12 13 14 16 18 20 21 22 22 20 19 18 18
7 8 8 8 8 8 8 8 7 7 7 6 5 4 3 2 2 3 4 4 4 5 4 4 5 5 5 5 4 4 3 3 4 4 3 3 6 7 7 8 8 9 9 9 10 10 10 10 10 10 10 10 10 10 9 10 10 10 10 11 12 13 13 14 15 17 18 19 20 20 20 19 19 18
7 8 8 8 8 7 7 7 7 7 7 7 6 6 5 5 4 3 4 5 3 4 5 5 4 4 4 4 4 4 3 4 5 3 2 3 6 7 8 9 9 9 9 9 9 10 10 11 12 12 13 13 13 13 13 13 13 13 13 13 14 14 14 15 15 16 17 17 17 17 18 19 18 18
8 8 8 8 7 7 7 7 6 6 6 6 7 7 7 7 5 3 4 6 6 4 4 4 4 3 3 3 3 3 2 3 4 3 1 3 6 5 6 10 11 9 9 9 9 9 10 11 12 13 13 14 15 15 16 16 16 16 16 16 16 16 16 16 16 17 17 17 17 16 17 18 18 18
7 7 7 7 6 6 6 6 6 6 6 6 6 6 6 6 5 4 5 7 7 5 4 4 4 2 2 2 3 2 1 1 1 1 1 2 3 2 4 8 10 10 8 8 8 9 10 11 12 13 14 14 15 16 16 17 18 18 18 19 19 19 19 18 18 18 19 19 18 17 17 17 18 19
6 6 6 6 6 5 5 5 5 6 5 5 5 5 5 5 5 4 4 5 6 6 4 4 4 3 1 1 1 1 1 1 2 1 1 2 1 3 4 4 8 11 9 7 8 9 9 11 12 13 14 14 16 16 17 17 18 18 19 20 20 20 21 21 21 20 20 20 20 19 18 17 18 19
5 5 4 5 4 4 5 4 4 5 4 3 5 5 5 5 5 4 3 3 4 5 5 4 4 3 1 0 1 0 1 1 2 3 3 3 2 3 5 4 6 10 10 8 8 9 10 11 11 12 13 13 14 15 16 17 18 19 19 20 20 21 21 22 22 22 22 22 21 21 20 19 18 19
5 4 4 4 3 3 4 4 4 4 3 3 4 5 5 5 5 4 3 3 3 3 4 3 2 2 1 1 0 2 3 3 3 3 4 5 4 4 6 6 6 11 14 14 13 14 14 14 13 13 13 13 13 14 15 16 17 18 19 20 21 21 21 21 22 22 23 23 23 22 22 21 20 19
4 4 4 4 4 3 3 3 3 3 3 3 4 4 4 4 4 3 2 2 1 1 3 3 1 1 1 1 1 2 4 4 5 5 5 6 5 6 8 8 7 11 14 16 17 19 18 17 17 15 13 13 12 12 13 14 15 17 18 19 20 20 21 21 21 21 22 23 23 24 23 23 22 21
5 5 4 4 5 5 4 3 3 3 3 3 3 3 3 3 4 3 2 2 1 0 1 2 2 2 1 2 2 2 4 6 5 6 8 8 6 7 9 10 8 8 9 11 14 16 16 16 18 18 17 15 12 12 13 13 13 15 17 18 18 19 19 19 20 20 21 22 23 24 24 24 23 23
7 7 7 7 7 7 6 6 5 4 4 4 4 4 3 3 3 3 2 1 1 1 2 2 2 2 2 2 3 3 3 5 5 6 10 10 9 9 10 12 10 7 8 11 13 15 16 17 17 18 18 16 15 16 15 14 13 14 15 16 17 17 17 18 19 19 20 21 22 23 24 24 24 24
8 9 9 10 10 10 10 10 9 7 6 6 6 5 5 4 4 3 2 3 3 3 3 3 3 4 5 4 5 5 5 5 6 7 9 11 12 12 12 13 11 8 9 11 12 14 16 16 15 16 16 15 16 18 17 14 14 15 15 16 16 17 17 18 18 19 19 20 21 22 23 24 24 25
9 9 9 11 12 12 12 12 11 10 10 9 7 6 5 4 4 4 4 4 5 6 6 6 6 7 9 9 8 8 6 6 8 8 9 11 12 14 14 14 12 9 9 12 13 14 14 13 13 13 12 11 14 16 14 9 11 16 19 19 18 18 17 17 17 18 19 19 20 20 21 22 23 24
8 9 9 10 12 13 13 13 12 12 13 13 10 7 7 7 6 5 5 5 5 6 7 7 6 8 10 9 9 9 7 6 8 8 10 11 13 14 14 14 12 9 9 12 16 17 15 13 14 13 11 11 12 11 9 9 13 18 20 19 19 19 19 18 17 17 18 18 18 19 19 20 21 22
9 9 9 9 10 11 12 13 13 13 15 16 16 13 11 10 9 7 5 5 4 5 7 7 6 7 8 8 10 10 7 7 9 10 11 12 12 13 13 14 13 9 9 14 19 20 16 13 14 14 13 12 12 11 12 16 18 19 18 18 19 20 19 18 17 16 17 17 17 17 17 17 18 19
10 10 9 7 6 7 9 10 10 12 15 17 18 18 15 13 13 11 7 5 2 4 6 7 7 7 7 9 11 9 7 9 10 11 11 11 12 13 13 15 15 13 13 16 19 19 16 13 14 15 13 13 13 14 16 19 20 19 19 20 20 20 19 18 17 16 16 16 16 16 16 16 17 17
10 10 7 6 5 6 8 7 7 10 14 17 19 18 16 15 14 12 9 6 4 4 4 6 6 6 6 9 9 7 7 10 10 11 12 12 12 14 14 16 18 18 17 16 16 18 16 14 14 15 14 14 14 14 17 19 21 22 22 21 20 20 19 17 17 17 16 15 14 15 16 16 17 17
9 7 5 5 5 5 6 6 8 10 13 16 18 15 13 12 11 8 7 5 4 4 3 4 5 4 5 7 6 6 8 9 9 11 12 13 14 15 17 19 20 19 16 13 13 16 15 14 14 15 16 15 15 15 17 19 22 23 22 21 20 19 18 17 17 17 17 16 15 15 16 17 18 18
7 6 5 5 5 5 6 8 10 10 11 13 14 12 10 9 8 8 7 5 4 3 2 2 3 3 5 6 6 6 7 7 9 11 13 14 16 16 17 17 17 16 14 11 12 15 15 14 16 16 15 15 16 16 16 19 22 22 21 21 21 19 18 17 17 17 18 18 18 17 17 17 17 18
5 5 5 5 6 7 7 9 11 10 11 13 13 12 11 9 9 9 8 6 6 5 5 5 6 7 9 10 10 10 11 10 10 11 13 15 15 15 16 16 15 14 12 10 11 15 16 15 16 17 16 16 18 18 17 18 19 18 19 20 19 18 18 19 20 21 22 22 22 21 19 18 17 17
6 7 7 6 6 7 8 9 11 13 14 13 12 12 10 8 7 7 7 6 7 7 8 9 10 10 11 12 13 14 14 14 13 12 13 13 13 14 15 15 15 14 13 12 12 15 16 14 15 17 17 16 18 19 17 16 15 16 18 18 16 16 18 19 21 23 24 25 26 25 23 20 18 17
8 10 10 9 8 9 11 12 14 15 13 10 10 10 9 7 6 5 5 5 6 7 8 9 10 11 12 14 15 15 15 16 14 12 13 13 13 14 15 15 15 15 14 12 10 12 15 15 15 17 18 17 17 16 14 13 13 16 18 17 17 18 18 18 21 24 24 23 23 23 23 21 19 17
9 10 10 10 9 10 12 13 14 14 11 7 8 8 7 6 6 5 4 4 3 4 6 7 8 10 13 13 13 13 14 16 16 12 12 12 13 14 15 15 15 13 12 9 9 12 15 15 15 17 17 15 14 13 13 13 14 17 17 17 18 18 19 21 23 25 23 20 17 18 19 19 18 16
11 11 10 10 10 10 12 13 13 13 11 7 6 5 5 5 5 4 4 4 4 4 5 7 8 9 10 10 10 10 12 13 13 11 11 12 13 14 16 16 15 14 13 11 12 14 17 17 18 19 18 16 15 16 17 17 18 19 19 19 19 19 21 22 23 22 22 20 19 19 20 19 18 17
11 11 11 12 11 10 11 12 11 11 11 9 6 4 4 5 5 3 2 4 6 5 6 8 9 9 10 10 10 10 10 10 10 10 11 13 14 16 18 19 19 18 18 16 15 18 20 21 20 20 20 19 20 21 21 20 20 20 20 21 21 20 21 21 21 20 20 20 20 22 21 18 17 17
11 11 12 13 13 11 10 11 10 9 9 8 5 4 3 4 3 2 2 3 5 6 7 8 9 9 9 9 9 9 10 10 9 10 13 15 16 17 18 19 20 21 21 20 19 19 21 21 20 20 20 20 20 22 22 21 20 20 19 20 20 20 20 21 21 21 20 19 19 20 18 15 14 16
12 12 13 14 13 12 11 10 9 8 7 5 3 2 2 2 2 1 2 3 5 6 7 8 9 9 9 9 9 9 9 9 10 12 15 16 16 17 17 17 18 20 22 21 20 19 20 21 20 20 21 21 21 21 21 20 20 19 19 19 19 19 20 20 21 21 20 19 19 19 18 18 19 19
13 14 15 16 14 13 11 10 8 6 4 3 2 1 1 2 3 1 2 4 5 6 7 7 8 8 8 9 9 9 10 12 13 14 15 14 14 15 16 17 18 19 20 20 19 17 18 19 19 19 19 20 20 20 19 20 20 20 20 20 19 19 19 19 20 21 20 19 18 18 17 18 18 16
14 14 15 15 14 12 9 7 5 4 3 2 1 2 3 3 2 1 3 3 4 6 6 7 8 9 9 8 9 11 13 14 14 14 14 14 15 15 16 17 17 18 18 18 18 17 17 18 19 19 18 19 20 20 20 21 21 21 20 20 20 20 19 20 20 20 19 18 17 17 17 16 16 14
14 14 15 14 13 11 9 7 6 4 3 2 2 3 4 3 1 2 2 3 4 5 6 7 8 9 9 9 11 13 14 14 14 14 15 15 15 15 16 17 17 17 17 17 17 17 17 18 19 19 20 20 20 21 21 21 21 22 21 21 21 21 19 19 19 18 18 18 17 17 17 17 16 15
15 16 15 14 12 11 10 8 6 4 2 2 2 2 2 2 1 0 2 3 4 5 6 8 9 9 10 11 12 14 14 14 15 15 15 15 16 16 16 17 18 17 17 16 15 15 16 17 18 18 19 20 20 20 20 20 21 22 21 20 21 20 19 19 19 19 18 18 18 18 18 17 16 16
18 18 15 13 11 10 9 8 6 4 4 3 2 2 2 2 1 1 3 4 4 4 7 8 9 10 11 12 14 14 14 14 14 15 15 16 16 16 16 17 18 18 17 17 16 15 16 17 17 18 19 20 20 20 19 20 20 21 21 20 20 20 19 19 19 19 18 17 17 17 17 17 17 17
19 17 14 12 11 10 8 7 6 5 4 4 3 2 2 1 1 1 3 4 4 6 8 9 9 10 12 14 14 14 14 14 15 15 15 16 16 16 16 17 17 18 18 18 17 16 16 16 16 17 19 20 20 20 20 20 21 21 21 20 19 19 18 18 18 18 18 17 17 16 16 17 16 16
17 15 13 11 10 9 8 7 6 5 4 4 4 3 2 1 1 2 3 4 5 7 8 8 9 11 13 14 14 14 14 15 15 15 15 16 16 16 16 17 18 18 18 19 19 18 17 16 16 17 18 19 20 20 20 21 23 22 20 19 19 19 18 18 17 17 17 16 16 16 16 16 16 16
14 12 11 10 9 8 7 6 5 4 4 3 3 2 2 1 1 2 3 4 7 8 8 9 10 12 13 13 14 14 15 15 16 16 16 15 16 16 17 17 18 18 18 19 19 18 17 17 17 17 17 17 17 17 18 21 23 23 21 19 18 18 18 17 16 15 15 15 15 15 16 16 15 14
12 11 10 9 8 7 6 5 5 4 4 3 2 2 1 1 1 3 4 5 7 7 8 9 11 12 13 14 14 15 15 15 16 16 16 15 16 16 17 17 18 18 18 18 19 18 18 17 16 16 16 15 13 12 14 15 17 18 19 19 18 17 17 16 15 15 15 14 14 15 15 15 15 14
11 11 10 9 8 7 6 5 5 5 4 4 2 1 1 1 2 4 5 6 7 7 8 10 12 13 13 14 14 14 14 15 15 16 16 16 16 16 17 17 17 18 18 18 18 18 18 17 16 16 15 12 8 9 12 13 12 13 16 18 18 17 16 15 15 16 15 14 14 14 14 14 14 14
12 11 10 9 8 6 6 6 5 5 4 3 2 1 1 2 3 4 5 6 6 7 8 10 12 13 13 13 14 14 15 15 16 16 16 16 16 16 17 17 17 17 17 18 18 18 18 18 17 16 15 12 8 8 10 12 13 13 13 15 16 16 15 15 15 15 15 14 14 14 13 13 14 15
12 11 10 9 8 7 7 7 6 5 5 3 2 1 1 3 4 5 6 6 7 8 9 11 12 13 13 13 13 14 15 15 16 16 16 16 16 16 17 17 18 17 18 18 18 18 17 17 17 17 16 15 13 12 13 14 16 17 16 15 16 16 15 15 15 14 14 14 14 13 12 12 13 13
11 11 10 9 8 8 8 7 6 5 4 3 2 0 2 3 4 5 5 6 8 8 9 11 12 12 12 13 13 14 15 16 16 17 17 17 17 17 17 18 18 18 18 18 18 17 16 17 17 16 17 18 19 19 19 18 18 18 15 13 12 12 12 12 13 13 13 13 12 11 11 10 10 9
11 10 9 9 9 9 8 7 6 5 3 2 1 1 3 3 4 5 6 7 8 8 9 11 13 12 13 13 14 15 16 16 17 17 17 17 17 18 18 18 18 17 17 17 18 18 17 17 17 18 19 19 19 17 15 13 13 13 11 9 8 8 9 10 13 15 16 15 12 10 10 10 9 8
11 10 9 9 9 9 8 7 6 5 3 2 1 1 3 4 5 7 7 7 7 7 9 12 13 13 13 14 14 15 16 17 17 17 17 18 18 18 17 17 17 16 16 17 18 18 18 18 18 17 16 14 12 11 10 9 10 11 10 8 6 7 9 10 11 12 13 14 11 8 7 7 7 6
10 10 9 9 9 8 8 7 6 4 3 1 1 2 4 4 5 6 6 6 6 7 10 12 13 13 13 14 15 16 16 17 17 17 17 17 18 18 17 17 17 16 17 18 18 19 18 18 17 15 14 12 10 10 11 11 11 11 10 8 6 6 7 9 10 10 6 7 10 9 8 7 6 6
10 10 9 9 9 8 8 7 5 4 2 1 1 2 4 5 5 5 6 5 6 8 9 11 13 13 14 15 16 16 16 16 16 17 17 18 18 18 17 17 17 17 17 17 18 18 17 17 16 14 12 12 11 11 11 11 10 9 9 7 6 5 6 6 7 7 5 2 4 7 8 8 8 8
10 9 9 9 9 9 8 7 5 3 2 2 3 4 5 5 5 6 5 5 6 8 9 11 13 14 15 15 16 16 16 16 17 17 17 17 18 18 17 16 16 17 17 16 16 16 16 15 14 12 11 11 11 11 10 9 9 8 7 6 5 5 5 5 4 5 6 7 6 5 4 4 4 3
Wind_Direction
102 102 100 103 102 96 95 96 97 103 117 136 155 170 175 172 162 156 145 125 113 100 78 81 79 69 71 75 72 65 49 55 70 58 33 1 346 347 347 339 337 334 330 329 327 325 324 323 322 319 316 315 312 307 302 298 294 291 289 288 288 290 291 292 292 290 289 286 283 281 279 277 275 270
106 107 105 106 105 101 99 98 100 102 108 120 129 133 142 146 141 143 136 118 103 101 88 73 76 79 77 74 79 75 45 52 77 63 46 6 340 345 351 342 335 328 321 316 312 312 310 309 309 308 307 307 304 302 300 297 296 294 290 288 287 287 287 287 287 287 287 288 286 282 280 277 275 273
112 112 111 111 107 107 107 104 103 102 101 104 102 98 93 83 79 110 134 123 101 96 99 90 80 80 84 79 85 88 55 46 73 71 54 20 359 358 356 351 348 335 326 320 312 309 307 305 304 302 300 299 298 297 295 294 293 292 292 291 290 289 288 287 286 286 286 287 286 283 279 277 275 274
120 120 115 114 114 113 111 108 104 99 95 93 92 93 89 84 78 78 106 114 106 95 100 110 103 91 91 80 77 95 71 47 72 83 52 27 22 1 325 333 349 347 332 326 321 317 314 311 308 305 303 300 298 296 293 291 290 288 287 286 286 286 286 286 285 285 286 287 287 286 281 276 274 275
130 129 124 122 121 119 118 118 116 110 105 101 98 97 94 88 78 73 96 114 118 117 120 124 118 116 130 97 70 78 74 18 42 91 35 15 27 9 305 310 332 345 341 330 328 324 318 317 314 311 310 306 303 301 297 295 291 288 286 283 282 281 280 281 281 281 283 285 286 287 285 279 272 270
130 130 131 130 126 125 128 133 129 125 128 123 112 104 99 95 85 77 96 116 125 131 141 150 140 126 143 133 86 74 56 2 313 283 299 305 314 350 344 306 310 334 346 337 329 330 326 321 316 311 308 305 303 301 298 296 294 292 289 286 283 281 279 278 278 278 280 281 283 284 284 282 275 269
132 132 135 136 138 138 139 142 135 134 144 132 115 111 108 107 99 88 86 100 120 132 142 162 167 144 142 203 118 247 267 305 315 302 302 304 290 318 340 326 297 316 339 347 341 343 341 335 331 324 316 308 301 297 295 293 292 291 290 289 287 285 282 280 279 277 277 277 279 280 280 281 279 274
148 153 154 154 157 154 151 152 147 148 156 139 128 130 126 121 111 100 93 90 106 132 141 144 146 136 172 201 54 325 292 275 292 304 305 303 295 300 324 328 297 307 333 347 345 345 347 347 346 340 329 320 311 303 297 293 290 288 287 287 286 286 286 284 282 280 278 276 275 275 276 277 278 277
173 174 175 173 175 180 179 175 169 168 172 161 151 151 143 131 120 109 102 97 88 128 143 141 138 140 209 232 275 334 335 321 306 317 324 311 296 298 314 318 302 308 329 340 339 341 344 342 342 342 338 330 320 313 306 297 292 288 286 285 286 287 287 286 284 282 279 277 275 273 272 272 272 274
198 199 198 192 192 197 196 194 196 189 191 196 184 175 169 142 128 128 124 115 114 193 164 167 188 197 234 286 277 308 339 331 317 325 333 324 309 309 317 319 307 301 316 322 324 330 331 328 331 336 338 333 325 325 321 309 298 290 287 288 288 289 289 288 287 285 282 280 277 275 273 271 269 268
209 211 209 205 204 204 207 216 221 219 220 221 208 195 197 177 159 169 180 183 205 223 222 238 238 229 243 282 293 309 330 323 319 331 334 327 321 320 322 320 311 298 304 314 318 321 322 323 326 330 331 328 323 328 327 316 305 297 292 292 291 290 291 290 290 289 287 284 281 278 276 273 270 267
219 220 217 216 214 211 216 220 216 213 221 227 219 208 204 196 192 203 213 226 253 267 271 276 278 281 286 288 298 310 321 324 328 334 329 321 319 321 320 318 312 298 303 314 317 319 320 318 318 320 320 314 310 317 325 321 310 305 303 300 294 292 292 292 293 294 292 290 286 282 279 276 273 270
229 230 226 223 222 221 225 226 217 209 214 222 222 212 211 219 225 231 233 244 268 280 282 283 284 291 297 300 306 313 322 328 327 325 319 313 315 317 315 315 313 301 303 312 315 316 313 304 301 305 304 295 294 306 321 319 298 299 304 300 294 293 294 295 296 297 296 295 292 288 283 279 276 272
238 239 235 230 233 236 237 235 231 224 221 223 223 216 217 227 231 238 249 255 269 284 289 290 292 295 300 306 310 313 323 328 321 320 318 313 314 315 313 314 315 309 308 313 313 313 310 300 295 296 293 286 286 295 296 272 274 291 300 298 292 291 292 295 299 300 299 299 297 293 289 284 279 275
245 243 237 232 236 242 242 240 239 237 227 223 226 227 225 228 223 221 242 256 264 285 290 290 291 295 299 305 306 307 319 326 319 318 315 309 311 314 312 311 312 312 319 317 310 308 307 299 292 293 291 286 283 279 271 272 284 297 303 300 293 288 285 288 294 298 300 300 299 298 294 290 287 281
254 248 235 222 218 228 240 241 236 235 226 218 223 229 229 227 219 212 220 233 254 297 297 290 289 292 300 309 308 307 318 321 314 309 306 305 307 307 305 303 302 304 313 311 303 301 304 300 293 291 289 287 284 279 278 287 296 303 307 304 294 285 281 280 284 290 295 298 299 299 298 295 292 289
252 247 234 219 205 213 236 233 212 219 220 213 217 224 224 221 216 212 216 223 243 285 294 289 289 292 304 312 311 305 304 308 307 303 302 304 304 301 298 298 297 299 302 299 294 296 300 301 296 291 290 289 285 282 286 292 295 298 304 306 294 281 277 276 278 282 285 289 294 295 297 296 293 292
242 239 230 226 212 200 214 202 183 199 214 212 211 211 209 210 210 209 215 225 250 276 275 281 294 303 306 309 310 301 299 301 300 298 299 300 298 295 293 291 290 291 290 284 284 291 298 304 300 293 292 292 287 285 287 289 291 295 300 304 297 282 273 273 277 280 282 284 286 288 290 291 290 289
227 225 216 218 201 175 178 184 183 194 203 196 189 181 177 181 184 192 208 218 229 233 223 258 287 285 277 282 283 282 289 293 292 292 292 292 289 288 288 287 286 288 285 275 273 283 293 302 299 294 294 293 290 290 289 290 292 294 296 300 298 284 272 271 277 281 285 286 286 286 286 285 285 285
189 186 183 185 173 165 180 193 190 183 173 167 167 167 164 164 178 202 221 230 231 235 241 255 263 262 265 272 276 279 285 289 293 295 292 289 286 285 287 289 289 290 289 279 275 282 291 298 297 294 294 294 293 292 292 291 290 288 291 297 297 289 281 279 282 284 287 287 286 285 285 284 280 277
160 164 158 151 153 163 175 178 169 160 157 160 164 166 164 162 175 208 231 241 245 253 263 268 270 270 275 284 290 293 296 297 300 300 293 292 294 291 290 291 292 293 292 288 282 282 288 294 295 295 295 294 292 291 292 293 289 290 296 298 298 301 299 294 294 294 292 290 287 284 283 281 278 274
153 163 156 143 144 159 158 151 149 151 155 163 166 164 167 172 173 186 215 238 258 273 282 288 291 296 302 304 304 303 302 303 306 296 285 290 295 291 288 290 293 293 291 289 287 283 288 296 298 298 299 296 291 290 292 295 294 297 303 301 298 304 306 303 301 299 297 295 290 286 283 275 271 275
132 143 145 140 142 151 148 143 147 151 153 163 170 168 178 196 189 172 177 205 243 276 289 296 302 306 308 307 304 299 297 302 307 294 277 283 288 286 287 291 292 291 288 294 301 293 294 301 302 302 304 299 296 297 295 293 293 294 298 297 293 296 300 301 299 297 298 297 290 290 289 276 267 272
128 128 132 136 139 144 147 149 153 158 156 153 158 171 200 214 200 170 184 232 257 269 276 280 283 285 286 284 280 279 280 289 294 284 272 278 283 284 288 289 287 286 287 296 306 300 297 300 299 299 299 296 296 299 296 294 295 295 295 295 293 293 295 297 297 297 298 296 289 288 291 282 269 267
139 132 131 138 141 142 148 154 158 164 163 155 155 173 196 206 204 191 227 280 293 287 275 277 281 281 279 277 275 276 276 277 278 276 279 283 283 283 287 289 287 285 285 290 299 299 296 296 296 296 295 292 292 296 298 297 296 295 294 294 292 293 293 294 295 295 296 295 291 289 289 283 270 262
140 135 139 146 147 148 155 159 162 168 170 173 183 190 194 217 242 251 260 283 292 286 280 283 286 285 284 284 284 285 285 283 282 284 287 288 285 281 282 283 282 283 285 288 293 293 290 290 290 291 291 290 291 294 295 294 294 294 295 293 292 293 293 293 293 294 295 294 293 293 292 285 273 265
137 141 152 157 157 160 165 167 168 174 182 192 197 184 199 263 312 325 265 271 283 286 286 287 288 288 291 293 293 292 293 293 294 293 290 288 286 282 281 280 278 279 283 286 288 286 285 284 284 284 285 287 290 291 291 291 294 297 297 295 294 294 293 293 292 292 294 294 292 292 291 287 280 272
141 152 164 166 164 167 171 171 174 178 183 183 161 136 12 8 25 12 263 276 285 284 282 285 290 295 296 295 295 298 301 301 299 296 292 290 288 286 285 283 281 281 282 284 285 283 281 281 281 281 282 283 284 285 287 290 293 296 297 297 296 294 293 293 292 291 292 292 290 288 286 286 284 276
159 166 170 165 164 169 171 167 166 164 154 144 116 52 41 49 52 291 280 287 288 288 291 295 299 301 300 298 300 303 303 303 300 298 296 295 293 291 290 288 287 285 283 283 282 280 278 278 279 280 280 279 279 280 283 288 290 292 294 295 294 293 291 290 290 291 291 291 289 286 283 283 284 283
167 164 163 161 162 164 156 146 150 153 135 92 47 43 57 83 170 270 298 299 295 298 304 305 306 305 303 303 306 306 303 302 301 301 300 299 297 295 295 294 292 289 288 286 284 281 278 277 277 278 278 276 276 277 279 283 286 287 289 290 290 291 290 289 289 290 290 290 289 287 286 285 283 282
162 161 162 163 163 157 151 153 161 157 124 92 70 72 97 124 172 322 353 327 307 303 308 311 310 309 309 308 308 308 304 301 301 301 301 299 298 297 297 295 293 293 293 292 289 284 280 277 276 276 276 275 276 276 279 282 283 285 287 287 287 287 287 289 290 289 289 290 289 287 286 283 279 276
163 163 159 157 157 154 155 163 169 163 154 155 165 168 163 172 192 317 338 332 315 304 310 312 310 310 314 313 311 309 306 303 303 303 302 300 298 297 297 294 293 295 298 298 296 291 286 281 276 273 271 271 273 277 280 281 279 280 283 286 286 285 285 288 290 289 289 290 288 285 283 279 275 274
158 156 155 157 161 163 166 172 174 172 169 170 165 153 158 196 231 310 319 317 316 316 317 314 311 313 316 314 311 309 306 304 304 304 303 301 298 297 295 292 292 296 299 300 300 297 293 287 280 274 271 269 269 272 274 275 275 276 280 284 286 286 285 286 287 289 290 290 287 286 285 280 277 275
152 155 161 164 166 169 173 177 178 175 175 176 168 156 162 200 263 320 315 315 321 319 314 309 309 314 315 311 309 308 306 304 305 304 303 300 298 296 294 293 293 296 298 299 300 300 297 293 286 281 277 273 270 267 264 264 268 273 278 281 283 285 286 287 287 289 291 291 289 290 289 286 284 280
153 159 163 164 168 173 176 176 173 171 173 176 170 167 180 201 266 309 313 318 320 316 311 310 314 316 314 310 308 307 305 304 303 304 303 301 298 296 296 295 295 297 298 299 299 299 297 294 291 289 285 280 277 273 263 256 258 266 273 277 279 282 286 289 289 292 294 294 293 293 292 290 289 288
158 163 163 164 168 172 173 169 167 167 168 165 166 185 213 246 300 315 316 316 315 313 315 318 318 317 314 311 308 306 305 303 303 304 304 302 301 299 297 295 293 294 296 297 298 298 297 295 292 290 286 283 280 279 275 267 260 261 267 273 276 280 285 289 291 292 294 294 292 291 292 291 292 294
160 161 163 163 165 170 171 165 162 164 165 161 160 177 258 306 313 318 319 315 313 313 316 318 318 315 313 312 310 308 306 305 304 304 303 303 302 300 297 294 293 293 293 294 296 297 296 293 289 285 283 283 278 278 285 288 282 270 266 269 273 276 280 285 289 291 291 290 287 288 291 292 291 291
162 160 162 163 163 165 164 160 162 165 162 157 160 175 282 309 317 325 325 320 318 317 316 318 319 316 315 314 312 310 309 308 306 305 304 304 301 298 297 295 294 293 293 293 295 295 292 288 284 278 274 273 273 281 291 296 295 288 278 272 271 273 278 284 288 290 291 288 287 288 288 286 288 292
164 160 161 160 159 161 160 160 163 162 156 156 165 181 312 320 326 329 326 324 323 318 316 320 322 319 317 316 313 312 312 310 308 306 303 300 298 296 295 295 294 294 294 293 293 293 291 287 284 280 276 272 272 281 292 295 294 293 290 282 275 273 276 279 282 285 286 286 288 291 288 286 294 303
160 157 156 155 156 157 156 158 160 157 155 160 162 16 330 325 330 332 329 330 331 323 319 325 327 324 319 318 315 314 312 309 308 305 302 298 295 292 290 291 292 292 292 291 291 291 289 287 287 287 285 281 280 284 288 288 284 285 288 286 279 274 271 273 277 281 283 287 294 295 289 290 300 309
155 152 151 152 155 154 153 156 155 151 154 158 143 350 328 325 329 327 325 327 328 324 323 329 331 325 321 320 318 316 312 309 306 304 301 299 297 292 290 290 290 290 291 290 289 289 289 290 292 291 288 285 284 284 283 279 280 287 296 299 294 288 281 277 280 280 277 278 288 293 289 292 298 299
152 150 148 150 153 151 150 151 147 144 149 149 98 342 328 327 325 322 320 319 316 315 321 330 331 326 323 323 322 318 313 309 305 303 302 301 299 296 295 293 291 291 291 290 289 290 293 295 297 295 291 287 281 272 269 279 294 305 308 306 302 300 297 298 304 299 280 264 263 277 294 305 309 310
148 147 145 148 151 148 145 143 140 138 137 116 21 346 337 335 330 327 324 321 322 327 332 334 332 327 325 324 321 318 314 310 307 306 305 303 300 297 296 295 294 292 292 291 291 292 294 297 298 296 290 282 270 260 266 283 297 303 305 309 315 313 309 315 331 340 317 254 244 259 281 291 294 305
145 145 146 149 151 146 139 136 131 125 113 57 7 358 350 339 331 325 321 323 333 337 336 335 334 330 327 324 320 317 315 312 308 305 304 304 302 298 295 295 295 294 294 294 295 296 297 299 300 296 287 278 270 264 271 285 296 299 304 315 322 321 321 326 336 350 360 330 257 265 275 278 281 289
144 147 150 152 149 142 135 130 125 117 95 41 16 8 356 342 332 325 319 324 335 335 331 333 335 332 327 323 320 317 314 312 309 307 308 310 308 302 298 297 296 296 296 296 296 298 301 303 302 296 284 274 269 268 274 286 295 297 303 316 327 331 342 357 2 8 20 25 18 357 331 312 308 321